Welcome to the New NWS' Forecast!
Most changes are behind the scenes, but click here for differences you might notice.

Regional Weather Roundup (RWR)

Issued by Gray - Portland, ME (GYX)

                            
230 
ASUS41 KGYX 142210
RWRGYX
WEATHER ROUNDUP FOR MAINE AND NEW HAMPSHIRE
NATIONAL WEATHER SERVICE GRAY ME
600 PM EDT TUE AUG 14 2018

MEZ002-005-006-010-012-015-018-020-021-024-026-027-029-142300-
MAINE
  
CITY           SKY/WX    TMP DP  RH WIND       PRES   REMARKS
PORTLAND       PTSUNNY   70  69  97 E6        29.86F FOG              
SANFORD        LGT RAIN  70  69  97 CALM      29.84F                  
BAR HARBOR     CLOUDY    72  69  90 SW6       29.89R                  
WISCASSET      CLOUDY    74  71  91 S5        29.87F                  
ROCKLAND       CLOUDY    66  64  94 E5        29.88S FOG              
FRYEBURG       LGT RAIN  76  74  93 S3        29.85S                  
LEWISTONAUBURN FAIR      77  70  79 E7        29.84F                  
AUGUSTA        FAIR      76  69  79 S8        29.86F                  
WATERVILLE     PTSUNNY   75  71  87 CALM      29.84S                  
BANGOR         PTSUNNY   77  70  79 S12       29.87R                  
GREENVILLE       N/A     72  70  93 CALM      29.87S                  
MILLINOCKET    CLOUDY    76  70  82 VRB3      29.86S                  
HOULTON        CLOUDY    77  73  87 SW3       29.83F                  
PRESQUE ISLE   CLOUDY    79  68  69 S12       29.84R                  
FRENCHVILLE    FAIR      78  67  68 CALM      29.83F                  
CARIBOU        LGT RAIN  78  69  73 S3        29.82S                  
$$

NHZ002-005-008-009-011-012-014-142300-
NEW HAMPSHIRE
  
CITY           SKY/WX    TMP DP  RH WIND       PRES   REMARKS
PORTSMOUTH     MOSUNNY   72  68  87 E5        29.83S                  
ROCHESTER      PTSUNNY   73  71  93 S5        29.83F                  
MANCHESTER     NOT AVBL                                               
CONCORD        FAIR      75  69  81 SE6       29.82F                  
LACONIA        FAIR      75  72  90 VRB3      29.84F                  
PLYMOUTH       FAIR      77  69  76 E5        29.83F                  
BERLIN         FAIR      77  69  76 S7        29.85S                  
WHITEFIELD     FAIR      79  68  69 VRB3      29.84S                  
JAFFREY        NOT AVBL                                               
LEBANON        FAIR      79  68  69 VRB3      29.81F                  
MT WASHINGTON  FOG       55  55 100 SW14        N/A  VSB 1/4          
$$

VTZ005-007-008-142300-
VERMONT
  
CITY           SKY/WX    TMP DP  RH WIND       PRES   REMARKS
ST JOHNSBURY     N/A     79  68  69 MISG      29.81S                  
MONTPELIER     FAIR      77  67  71 S9        29.87F                  
BURLINGTON     PTSUNNY   84  64  50 S10       29.77F                  
$$

MAZ007-012-024-CTZ003-RIZ002-NYZ038-NYZ072-142300-
SOUTHERN NEW ENGLAND AND NY
  
CITY           SKY/WX    TMP DP  RH WIND       PRES   REMARKS
BOSTON         PTSUNNY   78  71  79 E7        29.82F                  
WORCESTER      PTSUNNY   71  69  93 NE3       29.86S                  
NANTUCKET      FAIR      74  72  93 S9        29.87S                  
PROVIDENCE     FAIR      81  69  67 S18       29.84R                  
HARTFORD       PTSUNNY   77  70  79 N6        29.80R                  
ALBANY         PTSUNNY   82  64  54 S13       29.78S                  
NEW YORK CITY  LGT RAIN  76  70  82 S9        29.81F                  
$$

ANZ081-ANZ082-ANZ150-NHZ014-MEZ023>029-142300-
COASTAL MARINE OBSERVATIONS
  
STATION/POSITION TIME  TEMP    WIND        PRES    WAVE
                       AIR SEA DIR/SP/G            HT/PER
                 (UTC) (F)     (DEG/KT/KT) (MB)    (FT/S)
MOUNT DESERT ROC 2200   68     180/ 11/ 11 1012.0S
MATINICUS ROCK   2100   69     220/  9/  9 1011.5F
ISLE OF SHOALS   2100   69     290/ 12/ 16 1010.9R
JEFFREYS LEDGE   2136      71                N/A     2/ 7
CASHES LEDGE BUO 2150   72 71                N/A     2/ 7
$$

.............KEY..............
   WCI - WIND CHILL
   TC  - TEMPERATURE IN CELSIUS
   VSB - VISIBILITY IN MILES
   HX  - HEAT INDEX
   FAIR- INDICATES FEW OR NO CLOUDS BELOW 12,000 FT, WITH NO 
         SIGNIFICANT WEATHER AND/OR OBSTRUCTIONS TO VISIBILITY.